Location: Miles
(41.4492°N, 81.6087°W)
Time: 18:21:49
(UTC+00:00)

Transit 2A - Pass Details

Date: 13 September 2024
Orbit: 590 x 960 km, 66.7° (Epoch: 05 October)

Event Time Altitude Azimuth Distance (km) Brightness Sun altitude
Rises 11:08:35 0° 312° (NW) 3,600 9.1 -0.2°
Reaches altitude 10° 11:12:33 10° 288° (WNW) 2,597 8.2 0.5°
Maximum altitude 11:15:22 14° 260° (W) 2,294 7.9 1.0°
Drops below altitude 10° 11:18:05 10° 231° (SW) 2,489 8.2 1.5°
Sets 11:21:46 0° 206° (SSW) 3,335 9.0 2.2°
